Starlink 31815

operational
NORAD ID: 59801 Int'l Des: 2024-093 Owner: SPXS Country: US Constellation: starlink
LEOCIRCULAR

Über Starlink 31815

Beschreibung wird geladen...

Live-Position

3D-Globus wird geladen...

Nächste Überflüge

Höhenverlauf

Altitude vs Time

uPlot chart will show altitude changes over time

Zweizeiliger Elementsatz

1 59801U 24093V 25307.68903554 .00001223 00000-0 53940-4 0 9991
2 59801 43.0006 200.6215 0000686 18.9053 341.1824 15.27583562 83424
Epoch: 3. Nov. 2025 • Age: 27 hours

Aktueller Status

Höhe 482.4 km
Geschwindigkeit 7.63 km/s
Subsatellitenpunkt 10.99°N, 18.99°E
Startdatum 18. Mai 2024
Alter 1.4 years
Typ internet

Technische Details

Klassifizierung Payload
Masse 730.00 kg
Trockenmasse 700.00 kg
Gesamtmasse 730.00 kg
Länge 0.30 m
Durchmesser 4.10 m
Spannweite 29.00 m
Form Box + pan
Hersteller SPXS
Bus-Typ Starlink V2M
Phasenstatus In Orbit
Besitzer/Staat SPXS/US

Große Konstellationen

Loading constellations...